Antwerp, Belgium

4:16 PM CEST on August 16, 2017 (GMT +0200)
Deurne

Weather History for EBAW - November, 2012

Change the Weather History Date:

Friday, November 9, 2012

  Actual Average Record
Temperature  
Mean Temperature 50 °F -  
Max Temperature 54 °F 46 °F 60 °F (1998)
Min Temperature 46 °F 37 °F 30 °F (2016)
Degree Days  
Heating Degree Days 15    
Moisture  
Dew Point 44 °F    
Average Humidity 82    
Maximum Humidity 93    
Minimum Humidity 55    
Precipitation  
Precipitation 0.08 in - - ()
Sea Level Pressure  
Sea Level Pressure 29.93 in    
Wind  
Wind Speed 7 mph ()    
Max Wind Speed 11 mph    
Max Gust Speed -    
Visibility 6.0 miles    
Events Rain    
Averages and records for this station are not official NWS values.
T = Trace of Precipitation, MM = Missing Value Source: Averaged Metar Reports

Daily Weather History Graph

Daily Weather History Graph

Search for Another Location

Airport or City:

Trip Planner

Search our weather history database for the weather conditions in past years. The results will help you decide how hot, cold, wet, or windy it might be!

Date:

Astronomy

Nov. 09, 2012 Rise Set
Actual Time 7:49 AM CET 5:01 PM CET
Civil Twilight 7:13 AM CET 5:37 PM CET
Nautical Twilight 6:33 AM CET 6:17 PM CET
Astronomical Twilight 5:54 AM CET 6:56 PM CET
Moon 1:58 AM CET (11/9) 2:35 PM CET (11/9)
Length of Visible Light 10h 24m
Length of Day
9h 12m
Waning Crescent, 25% of the Moon is Illuminated
Nov 9
Waning Crescent
Nov 13
New
Nov 20
First Quarter
Nov 28
Full
Dec 6
Last Quarter

Hourly Weather History & Observations

Time (CET) Temp. Windchill Dew Point Humidity Pressure Visibility Wind Dir Wind Speed Gust Speed Precip Events Conditions
12:20 AM 48.2 °F - 46.4 °F 93% 30.06 in 4.3 mi SW 8.1 mph - N/A   Overcast
12:50 AM 48.2 °F - 46.4 °F 93% 30.06 in 3.7 mi SW 6.9 mph - N/A   Overcast
1:00 AM 49 °F - 47 °F 88% 30.08 in - SW 6.7 mph - -   Overcast
1:20 AM 48.2 °F - 46.4 °F 93% 30.06 in 3.7 mi SW 6.9 mph - N/A   Overcast
1:50 AM 48.2 °F - 46.4 °F 93% 30.06 in 3.7 mi SW 8.1 mph - N/A   Overcast
2:20 AM 48.2 °F - 46.4 °F 93% 30.04 in 3.7 mi SW 6.9 mph - N/A   Overcast
2:50 AM 48.2 °F - 46.4 °F 93% 30.04 in 4.3 mi SSW 6.9 mph - N/A   Overcast
3:20 AM 48.2 °F - 44.6 °F 87% 30.04 in 5.0 mi SSW 6.9 mph - N/A   Overcast
3:50 AM 48.2 °F - 44.6 °F 87% 30.04 in 5.0 mi SSW 6.9 mph - N/A   Overcast
4:00 AM 48 °F - 45 °F 87% 30.06 in - SSW 6.7 mph - -   Overcast
4:20 AM 48.2 °F - 44.6 °F 87% 30.04 in 5.6 mi SSW 6.9 mph - N/A   Overcast
4:50 AM 48.2 °F - 44.6 °F 87% 30.04 in 5.0 mi SSW 6.9 mph - N/A   Overcast
5:20 AM 48.2 °F - 44.6 °F 87% 30.04 in 4.3 mi SSW 5.8 mph - N/A   Overcast
5:50 AM 48.2 °F - 44.6 °F 87% 30.04 in 4.3 mi SSW 5.8 mph - N/A   Overcast
6:20 AM 48.2 °F - 44.6 °F 87% 30.04 in 5.0 mi SSW 6.9 mph - N/A   Overcast
6:50 AM 48.2 °F - 44.6 °F 87% 30.04 in 5.6 mi SSW 6.9 mph - N/A   Mostly Cloudy
7:00 AM 47 °F - 45 °F 90% 30.04 in 5 mi SSW 6.7 mph - -   Overcast
7:20 AM 48.2 °F - 44.6 °F 87% 30.04 in 5.6 mi SSW 6.9 mph - N/A   Mostly Cloudy
7:50 AM 48.2 °F - 44.6 °F 87% 30.04 in 5.6 mi SSW 5.8 mph - N/A   Mostly Cloudy
8:20 AM 48.2 °F - 44.6 °F 87% 30.04 in 5.6 mi SSW 5.8 mph - N/A   Mostly Cloudy
8:50 AM 48.2 °F - 44.6 °F 87% 30.04 in 5.6 mi South 6.9 mph - N/A   Mostly Cloudy
9:20 AM 48.2 °F - 44.6 °F 87% 30.01 in 5.6 mi South 6.9 mph - N/A   Mostly Cloudy
9:50 AM 48.2 °F - 44.6 °F 87% 30.01 in 6.2 mi South 9.2 mph - N/A   Mostly Cloudy
10:00 AM 48 °F - 45 °F 84% 30.03 in 6 mi South 8.9 mph - -   Mostly Cloudy
10:20 AM 48.2 °F - 44.6 °F 87% 30.01 in 6.2 mi South 9.2 mph - N/A   Mostly Cloudy
10:50 AM 50.0 °F - 44.6 °F 82% 30.01 in 6.2 mi South 6.9 mph - N/A   Mostly Cloudy
11:20 AM 50.0 °F - 44.6 °F 82% 29.98 in 6.2 mi South 5.8 mph - N/A   Mostly Cloudy
11:50 AM 51.8 °F - 44.6 °F 76% 29.98 in 6.2 mi South 9.2 mph - N/A   Mostly Cloudy
12:20 PM 51.8 °F - 42.8 °F 71% 29.95 in 6.2 mi South 9.2 mph - N/A   Mostly Cloudy
12:50 PM 51.8 °F - 41.0 °F 67% 29.95 in 6.2 mi SSW 10.4 mph - N/A   Mostly Cloudy
1:00 PM 52 °F - 41 °F 56% 29.96 in 12 mi SSW 11.2 mph - -   Mostly Cloudy
1:20 PM 51.8 °F - 42.8 °F 71% 29.95 in 6.2 mi South 6.9 mph - N/A   Mostly Cloudy
1:50 PM 53.6 °F - 41.0 °F 62% 29.92 in 6.2 mi South 9.2 mph - N/A   Mostly Cloudy
2:20 PM 51.8 °F - 41.0 °F 67% 29.89 in 6.2 mi South 8.1 mph - N/A   Mostly Cloudy
2:50 PM 51.8 °F - 39.2 °F 62% 29.89 in 6.2 mi South 9.2 mph - N/A   Mostly Cloudy
3:20 PM 51.8 °F - 39.2 °F 62% 29.89 in 6.2 mi SSE 8.1 mph - N/A   Scattered Clouds
3:50 PM 51.8 °F - 41.0 °F 67% 29.89 in 6.2 mi SSE 8.1 mph - N/A   Partly Cloudy
4:00 PM 52 °F - 41 °F 55% 29.89 in 22 mi SSE 6.7 mph - -   Scattered Clouds
4:20 PM 50.0 °F - 41.0 °F 71% 29.86 in 6.2 mi SSE 6.9 mph - N/A   Partly Cloudy
4:50 PM 46.4 °F 44.3 °F 41.0 °F 81% 29.86 in 6.2 mi SE 4.6 mph - N/A   Partly Cloudy
5:20 PM 46.4 °F 43.5 °F 42.8 °F 87% 29.83 in - SE 5.8 mph - N/A   Clear
5:50 PM 48.2 °F - 42.8 °F 82% 29.83 in - SE 6.9 mph - N/A   Clear
6:20 PM 48.2 °F - 41.0 °F 76% 29.80 in - SSE 5.8 mph - N/A   Clear
6:50 PM 48.2 °F - 42.8 °F 82% 29.80 in - SSE 8.1 mph - N/A   Clear
7:00 PM 48 °F - 42 °F 75% 29.81 in 19 mi SSE 8.9 mph - -   Mostly Cloudy
7:20 PM 48.2 °F - 41.0 °F 76% 29.80 in 6.2 mi SSE 6.9 mph - N/A   Scattered Clouds
7:50 PM 48.2 °F - 42.8 °F 82% 29.77 in 6.2 mi SSE 6.9 mph - N/A   Scattered Clouds
8:20 PM 50.0 °F - 42.8 °F 76% 29.77 in 6.2 mi South 6.9 mph - N/A   Mostly Cloudy
8:50 PM 50.0 °F - 42.8 °F 76% 29.74 in 6.2 mi SSE 6.9 mph - N/A   Mostly Cloudy
9:20 PM 48.2 °F - 42.8 °F 82% 29.74 in 6.2 mi SSE 4.6 mph - N/A Rain Light Rain
9:50 PM 48.2 °F - 42.8 °F 82% 29.74 in 6.2 mi South 5.8 mph - N/A Rain Light Rain
10:00 PM 48 °F - 43 °F 77% 29.75 in 7 mi South 6.7 mph - - Rain Light Rain
10:20 PM 46.4 °F 43.5 °F 44.6 °F 93% 29.74 in 6.2 mi SSE 5.8 mph - N/A Rain Light Rain
10:50 PM 46.4 °F 42.4 °F 44.6 °F 93% 29.71 in 5.6 mi SSE 8.1 mph - N/A Rain Rain Showers
11:20 PM 46.4 °F 42.9 °F 44.6 °F 93% 29.71 in 4.3 mi South 6.9 mph - N/A Rain Rain
11:50 PM 46.4 °F 42.9 °F 44.6 °F 93% 29.71 in 6.2 mi South 6.9 mph - N/A Rain Light Rain